Dewpoint
3 3 2 2 2 3 3 5 5 5 5 6 7 8 6 5 4 5 5 5 5 5 5 6 6 8 8 5 5 8 7 6 7 5 5 4 5 6 6 7 7 6 5 6
3 2 1 1 1 1 3 4 4 5 6 7 7 6 5 5 4 5 5 6 4 4 5 6 6 7 5 5 5 5 5 6 6 5 5 4 7 7 5 5 5 6 6 5
3 2 2 1 0 -0 1 3 4 7 7 6 4 6 6 6 4 3 4 4 4 5 6 5 7 7 6 4 3 3 4 4 5 6 6 6 7 7 6 5 5 6 6 5
2 3 1 0 -0 -1 2 3 3 4 6 7 5 5 5 6 5 3 4 4 4 5 6 7 7 6 6 5 5 3 4 5 5 5 5 4 5 5 5 5 4 5 4 6
2 3 1 0 -0 -0 2 3 3 4 3 5 6 5 4 5 5 4 5 5 5 5 6 6 7 7 6 6 4 5 4 5 5 4 5 5 5 4 4 4 3 3 2 2
3 3 1 0 -1 -0 2 2 2 2 2 3 5 4 4 4 3 3 2 4 5 5 5 4 4 3 4 3 5 5 4 5 4 5 5 3 4 3 3 3 2 1 3 1
3 3 1 0 -1 -1 -1 1 1 1 0 2 3 2 2 3 2 4 2 2 4 3 3 3 4 4 4 4 4 3 5 5 3 6 4 4 1 1 1 2 0 -0 1 1
3 2 2 1 -0 -2 -2 0 1 1 0 1 2 2 2 1 2 2 2 1 2 2 3 5 5 5 5 4 4 4 3 5 6 5 5 4 2 -0 -1 1 2 1 1 -1
4 3 2 1 0 -1 -1 0 0 1 -0 -1 1 -1 1 2 1 1 2 4 3 3 4 3 6 6 6 5 4 4 3 2 5 3 6 5 3 -0 -1 -2 4 2 -0 -0
4 3 3 2 1 -0 -0 1 1 0 1 3 2 3 3 2 0 1 4 5 4 4 4 4 6 6 4 3 6 6 4 4 6 5 3 4 2 1 -1 2 2 1 -1 -1
4 3 3 3 1 0 -2 -1 2 1 2 1 2 3 3 3 3 1 3 4 4 4 6 6 6 5 3 2 4 6 5 6 5 5 7 7 1 2 2 1 1 1 0 -1
3 3 4 2 1 1 -1 -2 1 1 1 1 -1 1 2 1 2 4 4 3 3 4 3 3 3 4 3 3 3 3 5 3 4 4 4 1 0 1 1 0 0 1 1 1
4 4 2 2 1 -1 -2 -1 -2 1 1 1 -1 0 2 1 -0 -0 4 4 5 5 5 3 3 3 2 3 3 3 2 2 2 3 2 1 -1 -0 2 1 1 2 2 2
3 2 1 1 -1 -3 -3 -1 -1 -2 -3 -0 -1 -3 -3 -1 -2 -2 -0 1 1 3 4 4 -0 2 2 2 2 2 1 3 3 2 2 2 1 1 2 3 3 2 3 2
1 1 1 1 -0 -2 -2 -2 -2 -3 -5 -2 -3 -4 -5 -4 -4 -3 -2 -1 -1 2 3 3 4 3 3 2 2 1 3 2 2 3 1 2 1 1 1 0 1 2 2 2
0 0 0 1 1 -0 -1 0 -0 -1 -3 -5 -4 -3 -3 -2 -3 -4 -2 -2 -0 1 3 3 3 3 3 2 1 1 0 1 1 -1 -0 0 -1 -0 -1 -2 -1 1 2 2
-0 -0 -0 -0 -0 0 -0 -1 -2 -1 -1 -5 -2 -1 -1 -2 1 -0 -2 1 3 1 1 2 2 2 3 1 2 0 0 -0 -0 -1 -1 -0 -1 -2 -2 -1 0 2 2 2
-1 -1 -1 0 1 0 -0 -4 -4 -1 -2 -6 -4 -2 -1 -1 1 2 1 2 2 2 2 1 2 1 2 1 1 -0 -1 -2 -2 -3 -4 -3 -2 -2 -3 -3 -4 1 2 2
-3 -6 -5 -3 -1 -0 -1 -3 -2 -1 -4 -5 -2 -2 -3 0 1 0 2 2 -1 -0 0 -0 -0 -0 0 -1 -1 -2 -2 -2 -5 -7 -6 -5 -5 -5 -5 -4 -3 -0 2 2
-1 -1 -1 -1 -1 -1 -2 0 -1 -2 -4 -3 -2 -2 -0 -0 0 1 1 1 0 -0 -1 -1 -1 -1 -5 -6 -6 -4 -4 -4 -4 -4 -3 -4 -4 -4 -4 -4 -3 -2 -1 0
-1 -1 -2 -1 -0 -1 -1 -1 -1 -1 -2 -2 -1 -2 -1 -0 0 1 1 1 1 1 -1 -0 -0 -1 -3 -6 -6 -6 -7 -8 -8 -7 -6 -6 -5 -4 -3 -3 -4 -4 -4 -1
-1 -2 -1 -1 -2 -1 -2 -2 -3 -2 -3 -2 -1 -1 -4 -0 -1 0 1 1 1 1 -2 -1 -0 -2 -7 -7 -7 -7 -6 -6 -6 -5 -5 -5 -5 -5 -5 -4 -5 -4 -4 -3
-1 -1 -1 -1 -2 -2 -2 -1 -2 -3 -2 -1 -1 -1 -2 -0 -1 -1 0 1 -1 -2 -3 0 -1 -4 -7 -7 -6 -6 -6 -6 -6 -7 -6 -6 -6 -5 -4 -3 -3 -5 -4 -3
-2 -2 -2 -3 -2 -1 -2 -5 -5 -7 -5 -2 -2 -1 -2 -1 -0 0 1 -1 -1 -2 -0 -0 -3 -6 -6 -7 -7 -7 -7 -7 -8 -8 -7 -6 -6 -3 -2 -2 -3 -4 -4 -3
-2 -1 -2 -3 -4 -5 -5 -6 -8 -7 -8 -3 -2 -2 -1 -1 -1 -1 -1 0 0 0 -0 -3 -8 -9 -9 -8 -8 -7 -7 -7 -7 -6 -5 -5 -6 -10 -8 -6 -4 -3 -2 -1
-2 -2 -1 -3 -3 -4 -4 -4 -6 -7 -5 -3 -3 -2 -0 -0 -1 0 -1 -0 0 -1 -2 -7 -8 -8 -8 -7 -6 -6 -6 -6 -4 -5 -4 -3 -7 -8 -4 -2 -1 -1 -1 -0
-2 -2 -3 -4 -5 -5 -4 -4 -5 -6 -2 -2 -1 1 1 -1 0 0 -2 -2 -3 -5 -7 -8 -5 -6 -8 -8 -9 -6 -5 -4 -2 -2 -3 -6 -7 -4 -1 -0 0 0 -0 -0
Wind_Speed
37 34 33 32 29 27 26 18 4 15 22 8 6 5 7 8 8 15 10 3 3 3 4 3 5 3 4 8 2 3 2 3 1 3 2 0 3 1 3 4 3 1 4 5
39 37 34 32 32 33 31 16 8 21 34 8 7 5 7 6 5 6 7 7 6 1 1 1 2 2 4 10 4 2 2 2 2 5 5 4 4 1 1 4 3 6 6 5
41 39 38 37 34 32 32 15 2 11 27 10 16 12 6 11 11 6 7 6 5 3 1 1 1 1 4 7 5 3 2 2 5 5 4 2 2 2 2 3 3 3 6 5
43 42 42 38 34 35 36 15 7 13 9 17 7 16 9 13 6 12 15 4 7 6 5 4 3 2 3 6 8 5 3 1 2 2 2 2 2 5 8 4 5 5 6 7
47 47 44 37 35 39 35 11 5 6 5 17 14 6 6 13 11 8 5 5 8 7 6 6 6 5 2 1 2 2 3 2 2 4 2 3 7 9 10 12 10 9 7 11
50 48 45 42 43 46 26 17 6 4 11 7 11 12 8 14 8 12 18 10 4 5 11 14 22 17 14 7 6 4 3 4 3 4 4 5 7 11 10 9 7 7 10 11
52 50 46 48 46 47 30 18 6 5 2 5 8 9 16 14 10 9 19 21 11 8 13 11 5 12 14 12 9 10 6 6 3 2 3 2 7 6 8 8 2 4 4 10
55 51 50 49 47 45 32 21 7 4 2 7 9 15 10 25 23 10 15 21 19 16 8 4 3 4 4 4 6 7 6 5 2 3 2 7 10 9 4 6 3 2 8 10
56 53 53 50 47 42 32 21 9 5 7 1 4 3 16 5 10 3 7 12 20 18 5 3 6 5 4 5 3 6 6 4 5 3 3 6 5 5 16 3 2 4 12 15
56 54 49 50 46 41 38 16 19 10 4 8 4 3 2 2 9 4 5 9 6 5 3 3 4 6 4 5 7 5 4 2 9 3 5 7 8 15 6 2 5 14 23 24
56 54 51 48 43 39 31 28 12 15 6 8 9 10 9 2 4 4 3 6 1 3 3 3 3 3 7 4 5 7 6 7 4 3 2 11 11 5 6 6 16 22 22 24
54 53 53 47 40 37 35 30 21 12 6 6 7 8 7 9 10 2 2 1 5 8 3 2 3 2 2 5 3 2 4 7 6 8 7 7 6 5 10 13 24 23 20 18
53 55 47 41 38 36 36 27 33 18 6 6 3 4 6 3 4 9 1 5 3 4 4 6 3 4 4 4 5 5 3 7 5 4 6 17 20 11 11 18 18 19 17 14
51 47 43 39 37 34 32 24 19 18 6 3 3 4 5 9 7 5 4 4 5 4 3 2 2 2 5 4 4 5 7 9 5 4 7 9 12 13 19 16 16 18 17 18
42 42 38 36 34 31 27 20 16 14 13 8 4 8 8 6 3 6 9 10 7 6 4 2 2 4 2 3 2 3 4 5 4 5 10 9 9 10 6 5 10 18 21 22
42 40 37 34 31 31 27 9 18 18 14 3 1 2 6 2 9 9 7 10 6 4 2 2 4 4 2 1 3 7 13 11 6 3 6 8 9 11 12 12 15 17 20 24
33 32 32 32 32 32 23 7 9 23 15 3 2 4 2 7 8 8 9 11 8 10 6 6 4 7 5 2 4 4 14 14 10 11 19 12 15 12 11 11 13 17 22 24
34 33 32 31 29 27 17 9 14 23 14 5 3 3 4 6 6 5 9 8 10 5 5 4 6 7 7 5 9 23 27 27 28 30 31 29 25 23 22 21 21 21 28 26
32 31 30 28 27 19 13 15 17 21 7 8 5 3 4 7 4 4 7 6 1 6 6 5 5 3 6 7 16 17 19 25 23 27 26 24 22 20 17 17 17 20 27 29
35 36 22 9 21 24 22 15 9 8 6 6 7 10 4 9 7 5 4 3 3 4 6 7 4 9 29 23 20 17 19 20 24 31 31 27 29 25 20 15 13 18 24 29
35 9 5 25 36 25 12 7 6 6 3 7 9 22 6 11 4 3 6 2 2 3 4 6 3 4 6 23 35 39 42 44 42 38 34 33 32 33 31 29 30 32 29 27
18 18 30 26 9 6 5 4 5 5 6 8 9 13 18 10 9 4 6 3 2 5 2 3 4 4 12 21 25 24 28 27 23 20 22 22 25 27 27 26 26 28 30 31
36 14 10 8 7 5 7 8 5 4 7 14 16 6 15 8 8 4 3 4 5 2 1 4 4 4 12 13 12 16 16 16 15 16 15 16 19 20 24 24 25 27 29 32
5 7 5 4 5 4 4 9 10 15 12 24 25 12 6 7 4 3 5 5 2 3 3 5 3 20 20 16 19 20 17 20 20 21 22 24 25 25 26 29 30 30 29 29
6 6 5 5 9 12 18 24 18 13 21 30 19 5 8 3 3 4 3 3 5 6 4 4 17 19 18 21 21 21 22 24 23 22 20 22 23 22 25 24 22 22 24 30
5 5 3 5 6 3 8 20 22 24 25 26 16 4 4 5 4 5 7 5 6 4 4 10 10 13 10 11 14 17 18 21 21 20 22 24 20 19 18 17 17 19 23 30
5 6 20 15 12 11 16 25 25 23 27 4 5 6 8 3 3 4 5 5 5 14 9 13 8 13 20 23 24 21 20 19 16 18 18 17 17 15 14 15 17 21 26 26
Wind_Direction
201 201 200 202 203 200 199 183 180 179 194 171 199 188 168 219 235 220 222 278 245 222 304 340 17 42 14 353 336 62 61 126 145 82 347 40 108 88 123 119 205 115 146 270
204 205 205 201 195 192 183 176 180 189 188 203 196 184 208 224 222 189 184 206 204 61 215 299 8 73 38 32 50 95 329 15 60 356 346 357 68 333 76 86 66 186 142 255
207 204 199 195 192 190 188 167 157 191 200 212 199 187 196 210 245 218 190 185 160 146 143 88 229 307 46 36 56 30 74 109 142 188 229 181 298 268 229 137 114 204 213 224
205 199 195 192 191 191 182 183 205 181 206 198 186 195 182 198 229 213 180 217 188 168 186 194 163 292 19 17 7 8 96 135 344 111 9 350 263 275 285 238 197 185 237 212
200 197 193 189 186 186 188 178 176 179 168 179 186 179 205 203 192 177 216 170 198 186 186 181 197 146 114 242 326 359 25 243 99 315 303 299 280 262 248 260 259 248 242 258
200 197 193 186 184 185 193 202 172 210 176 171 189 203 196 202 204 239 218 193 175 185 236 233 216 206 185 206 188 203 124 115 83 263 344 359 308 251 236 239 220 216 243 241
198 195 192 189 188 190 188 192 199 164 227 167 197 209 205 221 223 222 209 209 189 226 133 110 151 191 184 204 208 171 144 120 102 229 22 309 242 285 283 240 272 213 111 145
195 193 192 189 193 190 188 195 169 145 124 177 189 219 205 220 236 236 235 217 226 210 155 76 65 344 344 272 224 189 169 126 127 177 186 292 296 273 251 185 226 199 132 123
193 191 189 191 192 192 188 194 188 138 127 32 304 209 221 191 212 207 233 194 188 176 111 114 170 196 199 220 190 29 95 104 147 129 172 239 245 286 0 36 256 174 148 143
191 189 188 192 191 194 195 181 194 197 126 39 55 64 285 269 190 163 163 156 148 157 116 118 167 220 208 212 182 169 119 54 199 147 214 274 240 274 334 103 241 159 168 166
190 188 188 189 189 191 199 199 189 185 125 83 81 66 50 8 48 146 127 116 32 67 180 144 177 216 212 201 188 169 156 160 191 133 154 256 233 271 201 203 164 170 174 179
186 187 187 186 188 189 199 199 195 163 155 138 106 71 63 64 52 47 83 240 154 159 137 156 152 233 223 163 227 159 196 179 181 182 207 238 208 246 274 233 183 181 190 192
188 184 181 182 181 186 197 195 204 197 188 251 282 152 154 130 49 26 77 53 44 97 86 162 199 226 144 170 230 196 253 158 176 104 239 245 247 264 241 191 193 193 199 215
176 173 174 175 181 184 191 184 188 191 157 119 265 183 215 240 254 282 30 33 347 47 99 122 148 183 190 216 224 185 206 151 180 254 274 250 250 278 210 209 214 212 228 236
168 168 174 176 177 179 182 179 182 187 189 184 199 233 268 243 254 232 251 255 303 19 39 40 255 289 340 336 48 255 199 180 158 225 223 227 253 214 210 260 244 240 240 220
164 165 168 171 173 177 175 168 197 191 192 153 97 173 182 189 213 215 206 215 209 176 250 198 274 262 349 274 228 242 231 237 214 226 268 249 263 263 279 291 261 244 238 236
155 162 167 170 173 174 165 154 170 190 182 167 7 328 191 200 184 200 205 202 198 209 204 211 203 246 198 203 232 259 223 241 255 259 268 260 258 261 278 293 292 268 246 233
159 160 160 164 163 172 157 132 156 171 163 141 114 268 317 171 175 194 191 196 203 217 226 220 194 205 204 242 230 237 236 245 257 259 262 271 278 284 289 281 277 252 228 222
153 153 155 154 164 159 136 119 141 165 164 169 162 188 222 168 153 176 191 197 125 190 209 226 175 221 224 208 208 221 215 224 242 264 271 278 280 286 287 291 287 240 232 229
150 148 142 155 172 157 148 137 146 167 201 208 191 192 196 157 155 184 179 206 237 186 225 196 199 240 240 240 241 230 226 234 244 255 259 263 270 274 272 266 279 262 254 244
147 127 117 143 141 150 171 157 151 163 216 218 208 193 150 184 139 176 206 218 217 241 249 177 250 267 226 245 237 237 239 246 251 260 268 269 268 271 268 266 271 273 267 254
150 138 135 146 124 152 155 156 162 182 209 196 187 187 183 159 173 144 186 195 195 256 197 149 255 259 249 245 244 249 252 256 266 272 273 279 279 277 274 273 274 269 267 259
129 145 160 157 165 180 167 152 155 190 208 184 165 142 164 153 173 164 162 197 227 244 206 232 226 245 269 271 264 265 266 263 271 279 278 285 285 277 270 269 264 272 265 256
125 155 145 185 160 192 182 182 183 203 166 162 155 141 153 169 146 152 191 215 146 256 240 229 231 232 249 264 268 275 271 279 286 293 291 290 285 280 268 266 271 273 259 246
161 174 184 179 207 188 203 196 193 200 189 156 158 146 151 165 170 194 181 165 237 220 225 224 251 260 269 273 281 277 275 280 284 295 294 285 280 289 290 283 271 260 247 229
163 192 197 197 158 195 187 200 198 189 180 168 168 147 184 207 187 164 202 191 218 236 214 238 271 278 285 295 315 305 293 289 294 281 276 273 285 298 299 289 266 249 232 219
203 212 208 190 194 189 198 203 205 190 158 173 139 181 208 137 183 203 190 210 220 221 238 246 245 271 290 302 304 296 284 285 272 278 284 281 289 292 289 270 248 224 210 211
Height
1463 1470 1476 1482 1492 1500 1505 1511 1518 1520 1523 1532 1529 1530 1527 1530 1529 1529 1531 1530 1530 1532 1528 1528 1527 1525 1526 1522 1520 1524 1525 1532 1539 1531 1527 1523 1524 1530 1534 1561 1552 1565 1572 1561
1457 1464 1471 1479 1487 1492 1501 1509 1515 1518 1521 1519 1523 1523 1521 1525 1526 1525 1528 1528 1527 1527 1529 1532 1526 1525 1526 1522 1522 1526 1525 1536 1550 1542 1537 1528 1531 1529 1529 1540 1548 1554 1569 1557
1451 1460 1468 1476 1483 1490 1501 1507 1513 1515 1513 1511 1514 1518 1518 1522 1520 1522 1523 1523 1524 1526 1529 1527 1530 1528 1526 1525 1525 1524 1524 1532 1539 1558 1543 1538 1537 1532 1532 1537 1562 1553 1552 1538
1446 1456 1462 1470 1479 1486 1495 1496 1495 1496 1500 1504 1509 1512 1512 1518 1519 1518 1519 1521 1521 1523 1531 1529 1530 1527 1528 1526 1526 1526 1527 1536 1533 1534 1536 1535 1534 1535 1535 1536 1537 1548 1536 1535
1441 1449 1456 1466 1477 1482 1490 1489 1491 1494 1497 1500 1507 1506 1508 1510 1512 1513 1517 1519 1518 1520 1526 1525 1528 1526 1527 1529 1526 1527 1527 1539 1537 1549 1536 1535 1537 1533 1531 1529 1527 1527 1526 1524
1434 1445 1453 1462 1468 1475 1479 1486 1487 1490 1493 1498 1503 1498 1504 1505 1509 1508 1511 1513 1517 1518 1519 1519 1520 1519 1521 1524 1528 1530 1532 1541 1549 1549 1539 1539 1545 1526 1523 1519 1517 1517 1524 1513
1429 1439 1449 1456 1464 1470 1478 1484 1486 1487 1495 1495 1496 1500 1503 1502 1504 1508 1508 1509 1512 1515 1517 1518 1520 1522 1521 1522 1523 1523 1532 1537 1552 1558 1548 1566 1524 1515 1514 1514 1511 1510 1510 1510
1422 1434 1442 1453 1461 1468 1476 1481 1484 1485 1490 1492 1496 1497 1498 1502 1502 1506 1507 1504 1508 1514 1515 1524 1529 1533 1526 1522 1520 1520 1521 1533 1549 1555 1561 1539 1521 1511 1509 1510 1511 1509 1509 1513
1416 1427 1437 1448 1457 1467 1473 1477 1482 1485 1487 1493 1493 1492 1495 1496 1498 1503 1501 1502 1504 1509 1514 1527 1531 1533 1526 1526 1519 1518 1522 1525 1536 1561 1552 1548 1521 1510 1505 1504 1518 1509 1509 1515
1411 1422 1433 1444 1455 1463 1472 1477 1482 1485 1487 1491 1490 1491 1494 1492 1492 1497 1498 1497 1503 1506 1515 1530 1527 1524 1517 1525 1522 1523 1530 1537 1530 1544 1552 1532 1513 1508 1507 1522 1521 1508 1510 1513
1406 1418 1430 1440 1451 1461 1468 1476 1480 1484 1486 1490 1491 1491 1493 1493 1491 1493 1493 1498 1501 1510 1514 1515 1520 1522 1513 1514 1510 1514 1522 1530 1535 1538 1538 1530 1502 1507 1514 1506 1503 1506 1510 1512
1401 1413 1425 1436 1447 1458 1466 1474 1479 1482 1486 1492 1493 1493 1493 1493 1494 1494 1493 1495 1494 1498 1509 1512 1514 1517 1511 1510 1518 1504 1515 1509 1519 1518 1514 1499 1499 1499 1499 1497 1499 1502 1505 1507
1396 1410 1422 1434 1445 1455 1464 1470 1476 1482 1487 1492 1493 1492 1493 1495 1495 1495 1495 1495 1496 1497 1498 1501 1505 1506 1505 1512 1510 1502 1497 1496 1503 1508 1499 1497 1494 1495 1496 1496 1499 1500 1502 1503
1395 1408 1421 1433 1445 1454 1461 1467 1473 1481 1487 1490 1491 1490 1492 1493 1494 1497 1496 1497 1498 1496 1498 1498 1503 1506 1497 1501 1496 1499 1493 1493 1496 1499 1493 1493 1492 1491 1493 1495 1496 1497 1498 1498
1396 1408 1422 1433 1444 1452 1461 1466 1472 1478 1484 1486 1488 1489 1490 1491 1492 1494 1496 1500 1496 1496 1496 1498 1501 1497 1498 1495 1494 1497 1487 1489 1497 1498 1486 1486 1488 1489 1490 1491 1493 1493 1493 1494
1398 1410 1422 1432 1442 1451 1458 1467 1471 1474 1479 1484 1488 1488 1488 1489 1490 1492 1493 1494 1495 1497 1501 1500 1498 1496 1498 1501 1501 1484 1483 1484 1485 1486 1486 1486 1487 1487 1487 1488 1490 1489 1489 1489
1403 1414 1424 1433 1443 1449 1457 1462 1464 1472 1480 1484 1487 1486 1486 1487 1488 1489 1490 1493 1493 1496 1497 1494 1494 1496 1495 1497 1493 1481 1479 1479 1481 1482 1483 1481 1483 1483 1484 1484 1484 1485 1484 1485
1408 1418 1426 1435 1443 1451 1458 1461 1465 1471 1480 1483 1488 1487 1486 1484 1486 1487 1488 1490 1491 1489 1490 1489 1489 1491 1490 1487 1471 1474 1476 1477 1477 1475 1476 1474 1476 1477 1477 1478 1478 1478 1478 1480
1411 1419 1428 1437 1443 1451 1458 1462 1466 1473 1480 1480 1485 1487 1486 1481 1483 1485 1487 1487 1489 1487 1487 1486 1487 1484 1477 1460 1464 1466 1467 1469 1469 1469 1468 1469 1469 1470 1471 1471 1471 1471 1472 1474
1409 1420 1429 1435 1442 1453 1460 1466 1471 1477 1476 1477 1476 1477 1479 1479 1482 1486 1488 1486 1485 1484 1480 1479 1476 1462 1455 1456 1459 1461 1462 1463 1465 1462 1460 1462 1461 1464 1464 1464 1465 1466 1467 1467
1406 1416 1424 1431 1442 1452 1461 1462 1466 1470 1472 1469 1465 1466 1470 1474 1477 1481 1483 1482 1480 1478 1473 1472 1464 1450 1443 1445 1447 1450 1450 1451 1454 1454 1454 1454 1454 1455 1457 1457 1457 1458 1458 1459
1405 1414 1424 1431 1438 1446 1450 1453 1460 1460 1462 1456 1456 1458 1462 1469 1473 1476 1478 1478 1479 1472 1465 1470 1459 1443 1436 1438 1436 1438 1442 1444 1445 1445 1445 1445 1445 1445 1446 1446 1447 1447 1447 1449
1410 1417 1422 1424 1431 1433 1435 1436 1447 1451 1441 1441 1444 1454 1460 1465 1468 1471 1473 1473 1475 1464 1468 1454 1445 1436 1434 1432 1434 1435 1437 1438 1438 1437 1438 1438 1439 1439 1438 1438 1438 1439 1438 1439
1408 1411 1415 1418 1421 1420 1422 1422 1422 1425 1431 1436 1444 1449 1456 1459 1463 1466 1466 1463 1462 1467 1458 1445 1437 1430 1429 1429 1431 1432 1432 1433 1433 1432 1432 1432 1432 1431 1431 1430 1429 1429 1429 1431
1404 1407 1409 1413 1408 1408 1410 1415 1420 1424 1429 1435 1442 1446 1449 1454 1456 1456 1455 1458 1455 1444 1437 1431 1424 1425 1426 1426 1427 1427 1428 1427 1426 1426 1426 1426 1425 1424 1422 1420 1420 1420 1423 1426
1401 1403 1403 1403 1406 1407 1407 1412 1416 1422 1426 1433 1437 1440 1445 1444 1442 1445 1445 1445 1438 1430 1422 1420 1421 1422 1423 1424 1423 1423 1422 1421 1420 1420 1421 1420 1420 1419 1417 1415 1415 1416 1419 1423
1394 1394 1394 1395 1393 1395 1404 1408 1411 1419 1421 1422 1427 1434 1433 1432 1434 1435 1430 1429 1420 1417 1417 1419 1419 1419 1419 1420 1419 1418 1417 1417 1417 1417 1416 1416 1415 1415 1414 1414 1414 1416 1420 1425